weather.gov     
National Weather Service

Terminal Aerodrome Forecast
NWS Homepage
This page is being discontinued on March 12, 2014.
The same data is available at this site. Please update your bookmarks.
Thank you, and we apologize for the inconvenience.
Please send an email to SR-SRH.Webmaster@noaa.gov with any concerns.


Current Version
Previous Version:    01  02  03  04  05  06  07  08  09  10  11  12  13  14  15  16  17  18  19  20  21  22  23  24  25  26  27  28  29  30  
   31  32  33  
[Printable]
763
FTUS41 KCAR 221748
TAFBHB
TAF
KBHB 221748Z 2218/2318 09004KT P6SM BKN025
     FM222000 07004KT P6SM SCT025 BKN035
     FM230200 09005KT P6SM SCT015 OVC025
     FM230900 10004KT 5SM BR SCT010 OVC040
     FM231400 09006KT 4SM BR OVC015
      AMD LTD TO CLD VIS AND WIND=




763
FTUS41 KCAR 221748
TAFBHB
TAF
KBHB 221748Z 2218/2318 09004KT P6SM BKN025
     FM222000 07004KT P6SM SCT025 BKN035
     FM230200 09005KT P6SM SCT015 OVC025
     FM230900 10004KT 5SM BR SCT010 OVC040
     FM231400 09006KT 4SM BR OVC015
      AMD LTD TO CLD VIS AND WIND=


U.S. Dept. of Commerce
NOAA National Weather Service
1325 East West Highway
Silver Spring, MD 20910
E-mail: w-nws.webmaster@noaa.gov
Page last modified: May 16, 2007
NATIONAL WEATHER SERVICE: for Safety, for Work, for Fun - FOR LIFE